Location: Linden Beach
(43.8519°N, 88.3741°W)
Time: 13:58:09
(UTC+00:00)

X-37B - Visible Passes

Search period start: 14 May 2021 00:00
Search period end: 24 May 2021 00:00
Orbit: 386 x 389 km, 45.0° (Epoch: 08 May)

Date Brightness Start Highest point End Pass type
(mag) Time Alt. Az. Time Alt. Az. Time Alt. Az.
14 May 1.1 01:48:09 10° W 01:51:15 48° SSW 01:54:18 10° SE visible
14 May 3.4 03:26:33 10° SW 03:26:35 10° SW 03:26:35 10° SW visible
15 May 2.6 02:26:55 10° W 02:29:13 18° SSW 02:30:45 14° S visible
17 May 3.3 02:08:06 10° SW 02:08:49 11° SW 02:09:33 10° SSW visible
